Location: Silverdale
(47.6506°N, 122.6941°W)
Time: 04:34:39
(UTC+00:00)

Altair - Pass Details

Date: 10 October 2022
Orbit: 1501 x 1682 km, 47.2° (Epoch: 04 December)

Event Time Altitude Azimuth Distance (km) Brightness Sun altitude
Rises 13:32:44 0° 263° (W) 4,765 - -9.2°
Exits shadow 13:35:39 10° 263° (W) 3,840 8.9 -8.7°
Reaches altitude 10° 13:35:46 10° 263° (W) 3,805 8.9 -8.7°
Maximum altitude 13:45:33 88° 177° (S) 1,645 7.7 -7.1°
Drops below altitude 10° 13:55:41 10° 88° (E) 3,931 11.5 -5.4°
Sets 13:58:53 0° 89° (E) 4,929 12.8 -4.8°
